E20ZNR-1 Weather Reports


time (UTC)temp
F
wind
direction
speed
knots
gust
knots
rain 1hr
in
rain 24hr
in
rain mn
in
humidity
%
barometer
mb
20260505040753 92 0 0.0 0.0 0.00 0.00 0.00 72 1008.0
20260505035228 97 0 0.0 0.0 0.00 0.00 0.00 61 1008.0
20260505033703 94 0 0.0 0.0 0.00 0.00 0.00 69 1008.0
20260505032138 94 0 0.0 0.0 0.00 0.00 0.00 66 1008.0
20260505030613 96 0 0.0 0.0 0.00 0.00 0.00 69 1009.0
20260505025047 93 0 0.0 0.0 0.00 0.00 0.00 69 1009.0
20260505023523 0 0 0.0 0.0 0.00 0.00 0.00
20260505021957 93 0 0.0 0.0 0.00 0.00 0.00 70 1008.0
20260505020431 90 0 0.0 0.0 0.00 0.00 0.00 79 1008.0
20260505014906 102 0 0.0 0.0 0.00 0.00 0.00 53 1009.0
20260505013341 95 0 0.0 0.0 0.00 0.00 0.00 68 1008.0
20260505011816 91 0 0.0 0.0 0.00 0.00 0.00 75 1008.0
20260505010250 98 0 0.0 0.0 0.00 0.00 0.00 69 1008.0
20260505004725 82 0 0.0 0.0 0.00 0.00 0.00 99 1008.0
20260505003159 80 0 0.0 0.0 0.00 0.00 0.00 99 1008.0
20260505001633 79 0 0.0 0.0 0.00 0.00 0.00 99 1008.0
20260505000108 79 0 0.0 0.0 0.00 0.00 0.00 99 1008.0
20260504234542 79 0 0.0 0.0 0.00 0.00 0.00 99 1007.0
20260504233018 79 0 0.0 0.0 0.00 0.00 0.00 99 1007.0
20260504231452 78 0 0.0 0.0 0.00 0.00 0.00 99 1007.0
20260504225926 78 0 0.0 0.0 0.00 0.00 0.00 99 1006.0
20260504224359 78 0 0.0 0.0 0.00 0.00 0.00 99 1006.0
20260504222834 78 0 0.0 0.0 0.00 0.00 0.00 99 1006.0
20260504221309 78 0 0.0 0.0 0.00 0.00 0.00 99 1006.0
20260504215744 78 0 0.0 0.0 0.00 0.00 0.00 99 1006.0
20260504214217 78 0 0.0 0.0 0.00 0.00 0.00 99 1006.0
20260504212652 78 0 0.0 0.0 0.00 0.00 0.00 99 1006.0
20260504211127 78 0 0.0 0.0 0.00 0.00 0.00 99 1005.0
20260504205601 78 0 0.0 0.0 0.00 0.00 0.00 99 1006.0
20260504204036 79 0 0.0 0.0 0.00 0.00 0.00 99 1006.0
20260504202455 79 0 0.0 0.0 0.00 0.00 0.00 99 1006.0
20260504200930 79 0 0.0 0.0 0.00 0.00 0.00 99 1006.0
20260504195405 80 0 0.0 0.0 0.00 0.00 0.00 99 1006.0
20260504193840 80 0 0.0 0.0 0.00 0.00 0.00 99 1007.0
20260504192315 80 0 0.0 0.0 0.00 0.00 0.00 99 1008.0
20260504190750 80 0 0.0 0.0 0.00 0.00 0.00 99 1008.0
20260504185225 80 0 0.0 0.0 0.00 0.00 0.00 99 1008.0
20260504183659 80 0 0.0 0.0 0.00 0.00 0.00 99 1008.0
20260504182135 80 0 0.0 0.0 0.00 0.00 0.00 99 1008.0
20260504180610 81 0 0.0 0.0 0.00 0.00 0.00 99 1008.0
20260504175045 82 0 0.0 0.0 0.00 0.00 0.00 99 1008.0
20260504173520 82 0 0.0 0.0 0.00 0.00 0.00 99 1008.0
20260504171954 82 0 0.0 0.0 0.00 0.00 0.00 99 1008.0
20260504170428 82 0 0.0 0.0 0.00 0.00 0.00 99 1008.0
20260504160248 82 0 0.0 0.0 0.00 0.00 0.00 99 1008.0
20260504150108 83 0 0.0 0.0 0.00 0.00 0.00 99 1007.0
20260504140117 83 0 0.0 0.0 0.00 0.00 0.00 99 1007.0
20260504130800 84 0 0.0 0.0 0.00 0.00 0.00 99 1005.0
20260504081556 83 0 0.0 0.0 0.00 0.00 0.00 97 1004.0